Time,TemperatureF,DewpointF,PressureIn,WindDirection,WindDirectionDegrees,WindSpeedMPH,WindSpeedGustMPH,Humidity,HourlyPrecipIn,Conditions,Clouds,dailyrainin,SoftwareType,DateUTC
2013-01-29 00:01:00,39.6,37.7,29.80,ESE,113,0.9,0.9,93,0.00,,,0.00,WUHU216HW,2013-01-29 08:01:00,
2013-01-29 00:06:00,39.6,37.7,29.80,ESE,113,0.9,0.9,93,0.00,,,0.00,WUHU216HW,2013-01-29 08:06:00,
2013-01-29 01:00:00,40.0,38.1,29.82,SSE,158,0.0,0.0,93,0.00,,,0.00,WUHU216HW,2013-01-29 09:00:00,
2013-01-29 01:05:00,40.0,37.8,29.82,SSE,158,0.0,0.0,92,0.00,,,0.00,WUHU216HW,2013-01-29 09:05:00,
2013-01-29 01:10:00,40.0,37.8,29.82,SSE,158,0.0,0.0,92,0.00,,,0.00,WUHU216HW,2013-01-29 09:10:00,
2013-01-29 01:15:00,40.0,37.8,29.82,SSE,158,0.0,0.7,92,0.00,,,0.00,WUHU216HW,2013-01-29 09:15:00,
2013-01-29 01:20:00,40.1,38.0,29.82,NNW,338,0.0,0.7,92,0.00,,,0.00,WUHU216HW,2013-01-29 09:20:00,
2013-01-29 01:25:00,40.1,38.0,29.82,SE,135,0.2,0.7,92,0.00,,,0.00,WUHU216HW,2013-01-29 09:25:00,
2013-01-29 01:30:00,40.1,38.0,29.82,SSE,158,0.0,0.7,92,0.00,,,0.00,WUHU216HW,2013-01-29 09:30:00,
2013-01-29 01:35:00,40.1,38.0,29.82,SSE,158,0.0,0.0,92,0.00,,,0.00,WUHU216HW,2013-01-29 09:35:00,
2013-01-29 01:40:00,40.1,38.0,29.82,SSE,158,0.0,0.0,92,0.00,,,0.00,WUHU216HW,2013-01-29 09:40:00,
2013-01-29 01:45:00,40.0,37.8,29.83,SSE,158,0.0,0.0,92,0.00,,,0.00,WUHU216HW,2013-01-29 09:45:00,
2013-01-29 01:50:00,40.0,37.8,29.83,SSE,158,0.0,0.7,92,0.00,,,0.00,WUHU216HW,2013-01-29 09:50:00,
2013-01-29 01:55:00,40.0,37.8,29.82,SSE,158,0.9,0.9,92,0.00,,,0.00,WUHU216HW,2013-01-29 09:55:00,
2013-01-29 02:00:00,40.0,37.8,29.83,SSE,158,0.0,0.9,92,0.00,,,0.00,WUHU216HW,2013-01-29 10:00:00,
2013-01-29 02:05:00,39.8,37.6,29.82,SE,135,1.1,1.1,92,0.00,,,0.00,WUHU216HW,2013-01-29 10:05:00,
2013-01-29 02:10:00,39.8,37.6,29.83,SE,135,0.0,1.1,92,0.00,,,0.00,WUHU216HW,2013-01-29 10:10:00,
2013-01-29 02:15:00,39.8,37.6,29.83,SE,135,0.0,0.4,92,0.00,,,0.00,WUHU216HW,2013-01-29 10:15:00,
2013-01-29 02:20:00,39.8,37.6,29.84,SE,135,0.0,0.0,92,0.00,,,0.00,WUHU216HW,2013-01-29 10:20:00,
2013-01-29 02:25:00,39.6,37.4,29.84,SE,135,1.1,1.1,92,0.00,,,0.00,WUHU216HW,2013-01-29 10:25:00,
2013-01-29 02:30:00,39.8,37.6,29.84,SE,135,0.3,1.1,92,0.00,,,0.00,WUHU216HW,2013-01-29 10:30:00,
2013-01-29 02:35:00,40.0,37.8,29.84,SE,135,0.4,0.4,92,0.00,,,0.00,WUHU216HW,2013-01-29 10:35:00,
2013-01-29 02:40:00,40.0,37.8,29.84,ESE,113,0.9,1.1,92,0.00,,,0.00,WUHU216HW,2013-01-29 10:40:00,
2013-01-29 02:45:00,40.1,38.0,29.85,ESE,113,0.4,1.1,92,0.00,,,0.00,WUHU216HW,2013-01-29 10:45:00,
2013-01-29 02:50:00,40.0,37.8,29.85,ESE,113,1.1,1.1,92,0.00,,,0.00,WUHU216HW,2013-01-29 10:50:00,
2013-01-29 02:55:00,40.0,37.8,29.86,ESE,113,0.0,1.1,92,0.00,,,0.00,WUHU216HW,2013-01-29 10:55:00,
2013-01-29 03:00:00,40.0,37.8,29.86,ESE,113,1.1,1.1,92,0.00,,,0.00,WUHU216HW,2013-01-29 11:00:00,
2013-01-29 03:05:00,40.0,37.8,29.86,ESE,113,0.0,1.1,92,0.00,,,0.00,WUHU216HW,2013-01-29 11:05:00,
2013-01-29 03:10:00,40.0,37.8,29.86,ESE,113,0.0,0.7,92,0.00,,,0.00,WUHU216HW,2013-01-29 11:10:00,
2013-01-29 03:15:00,40.0,37.8,29.87,ESE,113,0.0,0.0,92,0.00,,,0.00,WUHU216HW,2013-01-29 11:15:00,
2013-01-29 03:20:00,40.0,37.8,29.87,ESE,113,0.0,0.0,92,0.00,,,0.00,WUHU216HW,2013-01-29 11:20:00,
2013-01-29 03:25:00,40.0,37.8,29.87,ESE,113,0.0,1.1,92,0.00,,,0.00,WUHU216HW,2013-01-29 11:25:00,
2013-01-29 03:30:00,40.0,37.8,29.86,ESE,113,0.0,1.1,92,0.00,,,0.00,WUHU216HW,2013-01-29 11:30:00,
2013-01-29 03:35:00,40.0,37.8,29.87,ESE,113,0.0,1.1,92,0.00,,,0.00,WUHU216HW,2013-01-29 11:35:00,
2013-01-29 03:40:00,40.0,37.8,29.87,ESE,113,0.0,0.0,92,0.00,,,0.00,WUHU216HW,2013-01-29 11:40:00,
2013-01-29 03:45:00,40.0,37.8,29.87,ESE,113,0.0,0.0,92,0.00,,,0.00,WUHU216HW,2013-01-29 11:45:00,
2013-01-29 03:50:00,40.0,38.1,29.87,ESE,113,0.0,0.4,93,0.00,,,0.00,WUHU216HW,2013-01-29 11:50:00,
2013-01-29 03:55:00,40.0,38.1,29.87,ESE,113,0.0,0.4,93,0.00,,,0.00,WUHU216HW,2013-01-29 11:55:00,
2013-01-29 04:00:00,40.0,38.1,29.87,ESE,113,0.0,0.0,93,0.00,,,0.00,WUHU216HW,2013-01-29 12:00:00,
2013-01-29 04:05:00,40.0,38.1,29.87,ESE,113,0.0,0.0,93,0.00,,,0.00,WUHU216HW,2013-01-29 12:05:00,
2013-01-29 04:10:00,40.0,38.1,29.87,ESE,113,0.0,0.0,93,0.00,,,0.00,WUHU216HW,2013-01-29 12:10:00,
2013-01-29 04:15:00,40.0,38.1,29.87,ESE,113,0.4,0.4,93,0.00,,,0.00,WUHU216HW,2013-01-29 12:15:00,
2013-01-29 04:20:00,40.0,38.1,29.87,SSW,203,0.0,0.4,93,0.00,,,0.00,WUHU216HW,2013-01-29 12:20:00,
2013-01-29 04:25:00,40.1,38.3,29.88,ESE,113,0.0,0.0,93,0.00,,,0.00,WUHU216HW,2013-01-29 12:25:00,
2013-01-29 04:30:00,40.1,38.3,29.88,ESE,113,0.0,0.0,93,0.00,,,0.00,WUHU216HW,2013-01-29 12:30:00,
2013-01-29 04:35:00,40.1,38.3,29.88,ESE,113,0.0,0.0,93,0.00,,,0.00,WUHU216HW,2013-01-29 12:35:00,
2013-01-29 04:40:00,40.1,38.3,29.88,ESE,113,0.0,0.0,93,0.00,,,0.00,WUHU216HW,2013-01-29 12:40:00,
2013-01-29 05:00:00,40.3,38.2,29.90,SSE,158,0.0,0.0,92,0.00,,,0.00,WUHU216HW,2013-01-29 13:00:00,
2013-01-29 05:05:00,40.5,38.6,29.90,SSE,158,0.2,0.7,93,0.00,,,0.00,WUHU216HW,2013-01-29 13:05:00,
2013-01-29 05:10:00,40.5,38.3,29.90,SSE,158,0.0,0.7,92,0.00,,,0.00,WUHU216HW,2013-01-29 13:10:00,
2013-01-29 05:15:00,40.5,38.3,29.90,SSE,158,0.0,0.0,92,0.00,,,0.00,WUHU216HW,2013-01-29 13:15:00,
2013-01-29 05:20:00,40.5,38.3,29.90,SSE,158,0.0,0.0,92,0.00,,,0.00,WUHU216HW,2013-01-29 13:20:00,
2013-01-29 05:25:00,40.5,38.3,29.90,SSE,158,0.0,0.0,92,0.00,,,0.00,WUHU216HW,2013-01-29 13:25:00,
2013-01-29 05:30:00,40.5,38.3,29.90,SSE,158,0.0,0.0,92,0.00,,,0.00,WUHU216HW,2013-01-29 13:30:00,
2013-01-29 07:00:00,40.5,38.3,29.94,South,180,0.0,0.0,92,0.00,,,0.00,WUHU216HW,2013-01-29 15:00:00,
2013-01-29 07:05:00,40.5,38.3,29.93,South,180,0.0,0.0,92,0.00,,,0.00,WUHU216HW,2013-01-29 15:05:00,
2013-01-29 07:10:00,40.5,38.3,29.93,South,180,0.0,0.0,92,0.00,,,0.00,WUHU216HW,2013-01-29 15:10:00,
2013-01-29 08:00:00,40.1,38.0,29.96,South,180,0.0,0.0,92,0.01,,,0.00,WUHU216HW,2013-01-29 16:00:00,
2013-01-29 08:05:00,40.3,38.4,29.96,South,180,0.0,0.0,93,0.00,,,0.01,WUHU216HW,2013-01-29 16:05:00,
2013-01-29 08:10:00,40.3,38.4,29.97,South,180,0.0,0.0,93,0.00,,,0.01,WUHU216HW,2013-01-29 16:10:00,
2013-01-29 08:15:00,40.3,38.4,29.97,South,180,0.0,0.0,93,0.00,,,0.01,WUHU216HW,2013-01-29 16:15:00,
2013-01-29 08:20:00,40.3,38.4,29.97,South,180,0.0,0.0,93,0.00,,,0.01,WUHU216HW,2013-01-29 16:20:00,
2013-01-29 08:25:00,40.3,38.4,29.97,South,180,0.0,0.0,93,0.00,,,0.01,WUHU216HW,2013-01-29 16:25:00,
2013-01-29 08:30:00,40.5,38.6,29.97,South,180,0.0,0.0,93,0.00,,,0.01,WUHU216HW,2013-01-29 16:30:00,
2013-01-29 08:35:00,40.7,38.8,29.98,South,180,0.0,0.0,93,0.00,,,0.01,WUHU216HW,2013-01-29 16:35:00,
2013-01-29 08:40:00,40.7,38.8,29.98,South,180,0.0,0.0,93,0.00,,,0.01,WUHU216HW,2013-01-29 16:40:00,
2013-01-29 08:45:00,40.7,38.8,29.98,South,180,0.0,0.0,93,0.00,,,0.01,WUHU216HW,2013-01-29 16:45:00,
2013-01-29 08:50:00,40.7,38.8,29.99,South,180,0.0,0.0,93,0.00,,,0.01,WUHU216HW,2013-01-29 16:50:00,
2013-01-29 08:55:00,40.9,39.0,29.99,SE,135,0.0,0.0,93,0.00,,,0.01,WUHU216HW,2013-01-29 16:55:00,
2013-01-29 09:00:00,41.0,39.2,29.99,SE,135,0.0,0.4,93,0.00,,,0.01,WUHU216HW,2013-01-29 17:00:00,
2013-01-29 09:05:00,41.4,39.2,29.99,NNE,23,0.0,0.4,92,0.00,,,0.01,WUHU216HW,2013-01-29 17:05:00,
2013-01-29 09:10:00,41.4,39.2,30.00,NNE,23,0.0,0.0,92,0.00,,,0.01,WUHU216HW,2013-01-29 17:10:00,
2013-01-29 09:15:00,41.6,39.4,30.00,North,0,0.0,0.0,92,0.00,,,0.01,WUHU216HW,2013-01-29 17:15:00,
2013-01-29 09:20:00,41.9,39.8,30.00,NNW,338,0.2,0.4,92,0.00,,,0.01,WUHU216HW,2013-01-29 17:20:00,
2013-01-29 09:25:00,42.1,39.7,30.00,West,270,0.0,0.4,91,0.00,,,0.01,WUHU216HW,2013-01-29 17:25:00,
2013-01-29 09:30:00,42.1,39.7,30.00,West,270,0.0,0.4,91,0.00,,,0.01,WUHU216HW,2013-01-29 17:30:00,
2013-01-29 09:35:00,42.5,40.1,30.00,West,270,0.0,0.0,91,0.00,,,0.01,WUHU216HW,2013-01-29 17:35:00,
2013-01-29 09:40:00,42.7,40.2,30.00,West,270,0.0,0.0,91,0.00,,,0.01,WUHU216HW,2013-01-29 17:40:00,
2013-01-29 09:45:00,42.8,40.1,30.00,SSE,158,0.0,0.0,90,0.00,,,0.01,WUHU216HW,2013-01-29 17:45:00,
2013-01-29 09:50:00,42.8,40.1,30.00,SSE,158,0.0,0.0,90,0.00,,,0.01,WUHU216HW,2013-01-29 17:50:00,
2013-01-29 11:00:00,44.1,41.1,30.03,SE,135,0.0,0.0,89,0.00,,,0.01,WUHU216HW,2013-01-29 19:00:00,
2013-01-29 11:05:00,43.9,41.0,30.03,SE,135,0.0,0.0,89,0.00,,,0.01,WUHU216HW,2013-01-29 19:05:00,
2013-01-29 11:10:00,43.9,41.0,30.03,SE,135,0.0,0.0,89,0.00,,,0.01,WUHU216HW,2013-01-29 19:10:00,
2013-01-29 11:15:00,44.3,41.3,30.03,SE,135,0.0,0.2,89,0.00,,,0.01,WUHU216HW,2013-01-29 19:15:00,
2013-01-29 11:20:00,44.3,41.3,30.03,SE,135,0.0,0.2,89,0.00,,,0.01,WUHU216HW,2013-01-29 19:20:00,
2013-01-29 11:25:00,44.5,41.5,30.03,South,180,0.3,0.4,89,0.00,,,0.01,WUHU216HW,2013-01-29 19:25:00,
2013-01-29 11:30:00,44.5,41.5,30.03,SW,235,0.6,0.9,89,0.00,,,0.01,WUHU216HW,2013-01-29 19:30:00,
2013-01-29 11:35:00,44.6,41.7,30.03,SW,225,0.4,0.9,89,0.00,,,0.01,WUHU216HW,2013-01-29 19:35:00,
2013-01-29 11:40:00,44.6,41.7,30.03,South,180,1.1,1.1,89,0.00,,,0.01,WUHU216HW,2013-01-29 19:40:00,
2013-01-29 11:45:00,44.6,41.3,30.03,South,190,1.8,2.0,88,0.00,,,0.01,WUHU216HW,2013-01-29 19:45:00,
2013-01-29 11:48:00,44.6,41.3,30.04,West,270,0.2,0.2,88,0.00,,,0.01,WUHU216HW,2013-01-29 19:48:00,
2013-01-29 11:50:00,44.6,41.3,30.04,West,270,0.2,2.0,88,0.00,,,0.01,WUHU216HW,2013-01-29 19:50:00,
2013-01-29 11:55:00,44.6,41.3,30.04,West,270,0.2,1.3,88,0.00,,,0.01,WUHU216HW,2013-01-29 19:55:00,
2013-01-29 11:58:00,44.6,41.1,30.04,SE,135,1.1,1.1,87,0.00,,,0.01,WUHU216HW,2013-01-29 19:58:00,
2013-01-29 12:03:00,44.5,40.9,30.04,SSE,162,1.0,2.0,87,0.00,,,0.01,WUHU216HW,2013-01-29 20:03:00,
2013-01-29 12:08:00,44.5,40.9,30.04,SSE,158,0.4,2.0,87,0.00,,,0.01,WUHU216HW,2013-01-29 20:08:00,
2013-01-29 13:00:00,44.6,41.1,30.03,SSE,158,0.0,0.0,87,0.00,,,0.01,WUHU216HW,2013-01-29 21:00:00,
2013-01-29 13:05:00,44.8,41.2,30.03,SSE,158,0.0,0.0,87,0.00,,,0.01,WUHU216HW,2013-01-29 21:05:00,
2013-01-29 13:10:00,44.8,41.2,30.03,SSE,158,0.0,0.4,87,0.00,,,0.01,WUHU216HW,2013-01-29 21:10:00,
2013-01-29 13:15:00,45.0,41.4,30.03,SSE,158,0.0,0.4,87,0.00,,,0.01,WUHU216HW,2013-01-29 21:15:00,
2013-01-29 13:20:00,45.0,41.4,30.04,SSE,158,0.0,0.0,87,0.00,,,0.01,WUHU216HW,2013-01-29 21:20:00,
2013-01-29 13:25:00,45.0,41.4,30.04,SSE,158,0.0,0.0,87,0.00,,,0.01,WUHU216HW,2013-01-29 21:25:00,
2013-01-29 13:30:00,45.0,41.4,30.04,SSE,158,0.0,0.0,87,0.00,,,0.01,WUHU216HW,2013-01-29 21:30:00,
2013-01-29 13:35:00,45.0,41.4,30.04,WNW,293,0.0,0.0,87,0.00,,,0.01,WUHU216HW,2013-01-29 21:35:00,
2013-01-29 13:40:00,45.0,41.4,30.05,South,180,0.0,0.0,87,0.00,,,0.01,WUHU216HW,2013-01-29 21:40:00,
2013-01-29 13:45:00,45.0,41.4,30.05,South,180,0.0,0.0,87,0.00,,,0.01,WUHU216HW,2013-01-29 21:45:00,
2013-01-29 13:50:00,45.0,41.4,30.05,SSW,203,0.4,1.1,87,0.00,,,0.01,WUHU216HW,2013-01-29 21:50:00,
2013-01-29 13:55:00,45.0,41.0,30.05,SW,225,0.6,1.1,86,0.00,,,0.01,WUHU216HW,2013-01-29 21:55:00,
2013-01-29 14:00:00,45.0,41.0,30.05,SW,225,0.4,0.7,86,0.00,,,0.01,WUHU216HW,2013-01-29 22:00:00,
2013-01-29 14:05:00,45.0,41.0,30.05,SW,225,0.4,0.7,86,0.00,,,0.01,WUHU216HW,2013-01-29 22:05:00,
2013-01-29 14:10:00,45.2,41.2,30.05,WSW,248,0.7,0.7,86,0.00,,,0.01,WUHU216HW,2013-01-29 22:10:00,
2013-01-29 14:15:00,45.0,41.0,30.05,WSW,248,0.0,0.7,86,0.00,,,0.01,WUHU216HW,2013-01-29 22:15:00,
2013-01-29 14:20:00,45.2,41.6,30.05,SE,135,0.4,0.4,87,0.00,,,0.01,WUHU216HW,2013-01-29 22:20:00,
2013-01-29 14:25:00,45.2,41.6,30.04,ESE,113,1.6,1.6,87,0.00,,,0.01,WUHU216HW,2013-01-29 22:25:00,
2013-01-29 14:30:00,45.2,41.6,30.04,ESE,113,0.4,1.6,87,0.00,,,0.01,WUHU216HW,2013-01-29 22:30:00,
2013-01-29 14:35:00,45.2,41.6,30.04,ESE,113,0.9,1.1,87,0.00,,,0.01,WUHU216HW,2013-01-29 22:35:00,
2013-01-29 14:40:00,45.2,41.6,30.04,East,90,0.7,0.9,87,0.00,,,0.01,WUHU216HW,2013-01-29 22:40:00,
2013-01-29 14:45:00,45.0,41.4,30.05,East,90,0.7,0.7,87,0.00,,,0.01,WUHU216HW,2013-01-29 22:45:00,
2013-01-29 14:50:00,45.0,41.4,30.05,East,90,0.4,0.7,87,0.00,,,0.01,WUHU216HW,2013-01-29 22:50:00,
2013-01-29 14:55:00,45.0,41.4,30.04,ESE,113,0.7,1.6,87,0.00,,,0.01,WUHU216HW,2013-01-29 22:55:00,
2013-01-29 15:00:00,45.0,41.7,30.05,ESE,113,2.7,2.7,88,0.00,,,0.01,WUHU216HW,2013-01-29 23:00:00,
2013-01-29 15:05:00,45.0,41.7,30.05,East,90,2.9,2.9,88,0.00,,,0.01,WUHU216HW,2013-01-29 23:05:00,
2013-01-29 15:10:00,45.0,41.7,30.05,ESE,113,0.4,2.9,88,0.00,,,0.01,WUHU216HW,2013-01-29 23:10:00,
2013-01-29 15:15:00,44.8,41.5,30.05,East,90,0.7,1.8,88,0.00,,,0.01,WUHU216HW,2013-01-29 23:15:00,
2013-01-29 15:20:00,44.8,41.5,30.05,ESE,113,1.3,1.8,88,0.00,,,0.01,WUHU216HW,2013-01-29 23:20:00,
2013-01-29 15:25:00,44.6,41.3,30.05,SE,135,0.2,1.3,88,0.00,,,0.01,WUHU216HW,2013-01-29 23:25:00,
2013-01-29 15:30:00,44.6,41.3,30.05,SE,135,0.0,0.2,88,0.00,,,0.01,WUHU216HW,2013-01-29 23:30:00,
2013-01-29 15:35:00,44.6,41.7,30.05,South,180,0.2,0.2,89,0.00,,,0.01,WUHU216HW,2013-01-29 23:35:00,
2013-01-29 15:40:00,44.6,41.7,30.05,South,180,0.0,0.2,89,0.00,,,0.01,WUHU216HW,2013-01-29 23:40:00,
2013-01-29 15:45:00,44.6,41.7,30.04,South,180,0.0,0.2,89,0.00,,,0.01,WUHU216HW,2013-01-29 23:45:00,
2013-01-29 15:50:00,44.8,41.9,30.04,SE,135,0.9,0.9,89,0.00,,,0.01,WUHU216HW,2013-01-29 23:50:00,
2013-01-29 15:55:00,44.8,41.9,30.04,ESE,113,0.0,0.9,89,0.00,,,0.01,WUHU216HW,2013-01-29 23:55:00,
2013-01-29 16:00:00,44.6,41.7,30.05,ESE,113,0.0,0.7,89,0.00,,,0.01,WUHU216HW,2013-01-30 00:00:00,
2013-01-29 16:05:00,44.6,41.7,30.05,ESE,113,0.7,0.7,89,0.00,,,0.01,WUHU216HW,2013-01-30 00:05:00,
2013-01-29 16:10:00,44.6,41.7,30.04,ESE,113,0.2,0.7,89,0.00,,,0.01,WUHU216HW,2013-01-30 00:10:00,
2013-01-29 16:15:00,44.6,41.7,30.05,ESE,113,0.0,0.7,89,0.00,,,0.01,WUHU216HW,2013-01-30 00:15:00,
2013-01-29 16:20:00,44.5,41.1,30.05,SE,135,0.4,0.4,88,0.00,,,0.01,WUHU216HW,2013-01-30 00:20:00,
2013-01-29 16:25:00,44.5,41.5,30.05,ENE,68,0.4,0.4,89,0.00,,,0.01,WUHU216HW,2013-01-30 00:25:00,
2013-01-29 16:30:00,44.5,41.5,30.04,East,90,0.0,0.4,89,0.00,,,0.01,WUHU216HW,2013-01-30 00:30:00,
2013-01-29 16:35:00,44.3,41.3,30.05,East,90,0.0,0.0,89,0.00,,,0.01,WUHU216HW,2013-01-30 00:35:00,
2013-01-29 16:40:00,44.3,41.3,30.05,North,0,0.0,0.0,89,0.00,,,0.01,WUHU216HW,2013-01-30 00:40:00,
2013-01-29 16:45:00,44.3,41.3,30.05,North,0,0.0,0.0,89,0.00,,,0.01,WUHU216HW,2013-01-30 00:45:00,
2013-01-29 16:50:00,44.3,41.3,30.04,ENE,68,0.0,0.7,89,0.00,,,0.01,WUHU216HW,2013-01-30 00:50:00,
2013-01-29 16:55:00,44.3,41.3,30.05,ENE,68,0.0,0.7,89,0.00,,,0.01,WUHU216HW,2013-01-30 00:55:00,
2013-01-29 17:00:00,44.3,41.3,30.04,ENE,68,0.0,0.0,89,0.00,,,0.01,WUHU216HW,2013-01-30 01:00:00,
2013-01-29 17:05:00,44.3,41.3,30.05,ENE,68,0.0,0.0,89,0.00,,,0.01,WUHU216HW,2013-01-30 01:05:00,
2013-01-29 17:10:00,44.3,41.3,30.05,ENE,68,0.0,0.0,89,0.00,,,0.01,WUHU216HW,2013-01-30 01:10:00,
2013-01-29 17:15:00,44.3,41.3,30.05,ENE,68,0.0,0.0,89,0.00,,,0.01,WUHU216HW,2013-01-30 01:15:00,
2013-01-29 17:20:00,44.1,41.4,30.05,ENE,68,0.0,0.0,90,0.00,,,0.01,WUHU216HW,2013-01-30 01:20:00,
2013-01-29 17:25:00,43.9,41.2,30.05,ENE,68,0.0,0.0,90,0.00,,,0.01,WUHU216HW,2013-01-30 01:25:00,
2013-01-29 17:30:00,43.9,41.2,30.04,ENE,68,0.0,0.0,90,0.00,,,0.01,WUHU216HW,2013-01-30 01:30:00,
2013-01-29 17:35:00,43.9,41.2,30.05,ENE,68,0.0,0.0,90,0.01,,,0.01,WUHU216HW,2013-01-30 01:35:00,
2013-01-29 17:40:00,43.9,41.2,30.04,ENE,68,0.0,0.0,90,0.01,,,0.01,WUHU216HW,2013-01-30 01:40:00,
2013-01-29 17:45:00,43.9,41.2,30.04,ENE,68,0.0,0.0,90,0.01,,,0.01,WUHU216HW,2013-01-30 01:45:00,
2013-01-29 17:50:00,43.9,41.2,30.04,NE,45,0.0,0.0,90,0.01,,,0.01,WUHU216HW,2013-01-30 01:50:00,
2013-01-29 17:55:00,43.9,41.2,30.04,NE,45,0.0,0.0,90,0.02,,,0.03,WUHU216HW,2013-01-30 01:55:00,
2013-01-29 18:00:00,43.7,41.0,30.05,NE,45,0.0,0.0,90,0.02,,,0.03,WUHU216HW,2013-01-30 02:00:00,
2013-01-29 18:05:00,43.7,41.0,30.05,NE,45,0.0,0.0,90,0.02,,,0.03,WUHU216HW,2013-01-30 02:05:00,
2013-01-29 18:10:00,43.6,40.9,30.05,NE,45,0.0,0.0,90,0.03,,,0.03,WUHU216HW,2013-01-30 02:10:00,
2013-01-29 18:15:00,43.6,40.9,30.05,NE,45,0.0,0.0,90,0.03,,,0.03,WUHU216HW,2013-01-30 02:15:00,
2013-01-29 18:20:00,43.6,40.9,30.05,NE,45,0.0,0.0,90,0.04,,,0.05,WUHU216HW,2013-01-30 02:20:00,
2013-01-29 18:25:00,43.6,40.9,30.05,NE,45,0.0,0.0,90,0.04,,,0.05,WUHU216HW,2013-01-30 02:25:00,
2013-01-29 18:30:00,43.6,40.9,30.05,NE,45,0.0,0.0,90,0.04,,,0.05,WUHU216HW,2013-01-30 02:30:00,
2013-01-29 18:35:00,43.6,40.9,30.05,NE,45,0.0,0.0,90,0.04,,,0.05,WUHU216HW,2013-01-30 02:35:00,
2013-01-29 18:40:00,43.6,40.9,30.05,NE,45,0.0,0.0,90,0.04,,,0.05,WUHU216HW,2013-01-30 02:40:00,
2013-01-29 18:45:00,43.6,40.9,30.05,NE,45,0.0,0.0,90,0.04,,,0.05,WUHU216HW,2013-01-30 02:45:00,
2013-01-29 18:50:00,43.6,41.1,30.05,NE,45,0.0,0.0,91,0.03,,,0.05,WUHU216HW,2013-01-30 02:50:00,
2013-01-29 18:56:00,43.6,41.1,30.04,NE,45,0.0,0.0,91,0.03,,,0.05,WUHU216HW,2013-01-30 02:56:00,
2013-01-29 19:01:00,43.6,41.1,30.05,NE,45,0.0,0.0,91,0.04,,,0.07,WUHU216HW,2013-01-30 03:01:00,
2013-01-29 19:06:00,43.6,41.1,30.05,NE,45,0.0,0.0,91,0.04,,,0.07,WUHU216HW,2013-01-30 03:06:00,
2013-01-29 19:11:00,43.4,41.0,30.05,NE,45,0.0,0.0,91,0.03,,,0.07,WUHU216HW,2013-01-30 03:11:00,
2013-01-29 19:16:00,43.4,41.0,30.05,NE,45,0.0,0.0,91,0.03,,,0.07,WUHU216HW,2013-01-30 03:16:00,
2013-01-29 19:21:00,43.4,41.0,30.05,NE,45,0.0,0.0,91,0.02,,,0.07,WUHU216HW,2013-01-30 03:21:00,
2013-01-29 19:26:00,43.6,41.1,30.04,ENE,68,0.0,0.7,91,0.01,,,0.07,WUHU216HW,2013-01-30 03:26:00,
2013-01-29 19:31:00,43.4,41.0,30.04,ENE,68,0.0,0.7,91,0.01,,,0.07,WUHU216HW,2013-01-30 03:31:00,
2013-01-29 19:36:00,43.4,41.0,30.04,ENE,68,0.0,0.0,91,0.02,,,0.08,WUHU216HW,2013-01-30 03:36:00,
2013-01-29 19:41:00,43.2,40.8,30.04,ENE,68,0.0,0.0,91,0.02,,,0.08,WUHU216HW,2013-01-30 03:41:00,
2013-01-29 19:46:00,43.2,40.8,30.04,NE,45,0.0,0.0,91,0.02,,,0.08,WUHU216HW,2013-01-30 03:46:00,
2013-01-29 19:51:00,43.2,40.8,30.04,NE,45,0.0,0.0,91,0.02,,,0.08,WUHU216HW,2013-01-30 03:51:00,
2013-01-29 19:56:00,43.2,40.8,30.04,NE,45,0.0,0.0,91,0.02,,,0.08,WUHU216HW,2013-01-30 03:56:00,
2013-01-29 20:01:00,43.2,40.8,30.05,NE,45,0.0,0.0,91,0.01,,,0.08,WUHU216HW,2013-01-30 04:01:00,
2013-01-29 20:06:00,43.2,41.0,30.04,NE,45,0.0,0.0,92,0.01,,,0.08,WUHU216HW,2013-01-30 04:06:00,
2013-01-29 20:11:00,43.2,40.8,30.04,NE,45,0.0,0.0,91,0.01,,,0.08,WUHU216HW,2013-01-30 04:11:00,
2013-01-29 20:16:00,43.2,41.0,30.04,NE,45,0.0,0.0,92,0.01,,,0.08,WUHU216HW,2013-01-30 04:16:00,
2013-01-29 20:21:00,43.2,41.0,30.03,NE,45,0.0,0.0,92,0.01,,,0.08,WUHU216HW,2013-01-30 04:21:00,
2013-01-29 20:26:00,43.4,41.2,30.03,NE,45,0.0,0.0,92,0.01,,,0.08,WUHU216HW,2013-01-30 04:26:00,
2013-01-29 20:31:00,43.4,41.2,30.03,NE,45,0.0,0.0,92,0.01,,,0.08,WUHU216HW,2013-01-30 04:31:00,
2013-01-29 20:36:00,43.4,41.2,30.03,NE,45,0.0,0.0,92,0.00,,,0.08,WUHU216HW,2013-01-30 04:36:00,
2013-01-29 20:41:00,43.4,41.2,30.03,NNE,23,0.0,0.0,92,0.00,,,0.08,WUHU216HW,2013-01-30 04:41:00,
2013-01-29 20:46:00,43.4,41.2,30.04,North,0,0.0,0.0,92,0.00,,,0.08,WUHU216HW,2013-01-30 04:46:00,
2013-01-29 20:51:00,43.4,41.2,30.04,North,0,0.0,0.0,92,0.00,,,0.08,WUHU216HW,2013-01-30 04:51:00,
2013-01-29 20:56:00,43.4,41.2,30.03,NNW,338,0.2,0.2,92,0.00,,,0.08,WUHU216HW,2013-01-30 04:56:00,
2013-01-29 21:00:00,43.4,41.2,30.03,North,0,0.0,0.2,92,0.00,,,0.08,WUHU216HW,2013-01-30 05:00:00,
2013-01-29 21:01:00,43.4,41.2,30.03,North,0,0.0,0.2,92,0.00,,,0.08,WUHU216HW,2013-01-30 05:01:00,
2013-01-29 21:03:00,43.4,41.2,30.04,WSW,248,0.4,0.4,92,0.00,,,0.08,WUHU216HW,2013-01-30 05:03:00,
2013-01-29 21:08:00,43.6,41.4,30.03,West,270,0.4,0.9,92,0.00,,,0.08,WUHU216HW,2013-01-30 05:08:00,
2013-01-29 21:13:00,43.9,42.0,30.03,West,270,0.2,2.5,93,0.00,,,0.08,WUHU216HW,2013-01-30 05:13:00,
2013-01-29 21:18:00,44.1,42.2,30.03,North,0,0.0,2.5,93,0.00,,,0.08,WUHU216HW,2013-01-30 05:18:00,
2013-01-29 21:23:00,43.9,41.8,30.03,NNE,23,0.0,0.2,92,0.00,,,0.08,WUHU216HW,2013-01-30 05:23:00,
2013-01-29 21:28:00,43.9,41.8,30.03,ESE,107,0.8,1.1,92,0.00,,,0.08,WUHU216HW,2013-01-30 05:28:00,
2013-01-29 21:33:00,43.7,41.6,30.03,NE,45,0.0,1.1,92,0.00,,,0.08,WUHU216HW,2013-01-30 05:33:00,
2013-01-29 21:38:00,43.7,41.6,30.03,North,0,0.0,0.0,92,0.00,,,0.08,WUHU216HW,2013-01-30 05:38:00,
2013-01-29 21:43:00,43.7,41.6,30.03,NNE,23,0.0,0.0,92,0.00,,,0.08,WUHU216HW,2013-01-30 05:43:00,
2013-01-29 21:48:00,43.7,41.6,30.03,ESE,113,0.4,0.4,92,0.00,,,0.08,WUHU216HW,2013-01-30 05:48:00,
2013-01-29 21:53:00,43.7,41.6,30.04,East,90,0.7,0.7,92,0.00,,,0.08,WUHU216HW,2013-01-30 05:53:00,
2013-01-29 21:58:00,43.7,41.6,30.04,East,90,0.0,0.7,92,0.00,,,0.08,WUHU216HW,2013-01-30 05:58:00,
2013-01-29 22:03:00,43.7,41.6,30.04,ESE,113,0.0,0.4,92,0.00,,,0.08,WUHU216HW,2013-01-30 06:03:00,
2013-01-29 22:08:00,43.7,41.6,30.04,ESE,113,0.9,1.1,92,0.00,,,0.08,WUHU216HW,2013-01-30 06:08:00,
2013-01-29 22:13:00,43.7,41.6,30.04,ESE,113,0.0,2.5,92,0.00,,,0.08,WUHU216HW,2013-01-30 06:13:00,
2013-01-29 22:18:00,43.7,41.6,30.04,SW,231,0.8,2.5,92,0.00,,,0.08,WUHU216HW,2013-01-30 06:18:00,
2013-01-29 22:23:00,43.9,41.8,30.04,South,180,0.0,1.1,92,0.00,,,0.08,WUHU216HW,2013-01-30 06:23:00,
2013-01-29 22:28:00,43.9,41.8,30.04,ESE,113,0.0,0.0,92,0.00,,,0.08,WUHU216HW,2013-01-30 06:28:00,
2013-01-29 22:33:00,43.9,41.8,30.04,ESE,113,0.0,0.0,92,0.00,,,0.08,WUHU216HW,2013-01-30 06:33:00,
2013-01-29 22:38:00,43.9,41.8,30.03,East,90,1.1,1.1,92,0.00,,,0.08,WUHU216HW,2013-01-30 06:38:00,
2013-01-29 22:43:00,43.9,41.8,30.04,East,90,0.0,1.1,92,0.00,,,0.08,WUHU216HW,2013-01-30 06:43:00,
2013-01-29 22:48:00,43.9,41.8,30.04,ESE,113,0.4,2.0,92,0.00,,,0.08,WUHU216HW,2013-01-30 06:48:00,
2013-01-29 22:53:00,43.9,41.8,30.04,ESE,113,0.0,2.0,92,0.01,,,0.08,WUHU216HW,2013-01-30 06:53:00,
2013-01-29 22:58:00,44.1,41.9,30.04,ESE,113,0.0,0.2,92,0.01,,,0.09,WUHU216HW,2013-01-30 06:58:00,
2013-01-29 23:03:00,43.9,41.8,30.05,ESE,113,0.0,0.2,92,0.01,,,0.09,WUHU216HW,2013-01-30 07:03:00,
2013-01-29 23:08:00,44.1,41.9,30.05,ESE,113,0.0,0.0,92,0.01,,,0.09,WUHU216HW,2013-01-30 07:08:00,
2013-01-29 23:13:00,44.1,41.9,30.05,East,90,0.4,0.4,92,0.01,,,0.09,WUHU216HW,2013-01-30 07:13:00,
2013-01-29 23:18:00,44.1,41.9,30.05,East,90,0.4,0.9,92,0.02,,,0.10,WUHU216HW,2013-01-30 07:18:00,
2013-01-29 23:23:00,44.1,41.9,30.05,NE,45,0.0,0.9,92,0.02,,,0.10,WUHU216HW,2013-01-30 07:23:00,
2013-01-29 23:28:00,44.1,41.9,30.05,East,90,0.4,1.6,92,0.02,,,0.10,WUHU216HW,2013-01-30 07:28:00,
2013-01-29 23:33:00,44.1,41.9,30.05,ESE,105,1.0,1.6,92,0.02,,,0.10,WUHU216HW,2013-01-30 07:33:00,
2013-01-29 23:38:00,44.1,41.9,30.05,East,90,0.2,1.3,92,0.02,,,0.10,WUHU216HW,2013-01-30 07:38:00,
2013-01-29 23:43:00,44.1,41.9,30.05,ESE,113,0.0,0.7,92,0.02,,,0.10,WUHU216HW,2013-01-30 07:43:00,
2013-01-29 23:48:00,44.1,41.9,30.05,East,90,0.0,0.7,92,0.02,,,0.10,WUHU216HW,2013-01-30 07:48:00,
2013-01-29 23:53:00,44.1,41.9,30.05,ESE,113,0.0,0.4,92,0.01,,,0.10,WUHU216HW,2013-01-30 07:53:00,
2013-01-29 23:58:00,44.1,41.9,30.06,East,90,0.0,1.8,92,0.01,,,0.10,WUHU216HW,2013-01-30 07:58:00,